Location: Bagnara
(41.0500°N, 14.7833°E)
Time: 14:14:40
(UTC+00:00)

NOSS 2-2 (C) - Pass Details

Date: 20 June 2021
Orbit: 454 x 1753 km, 63.3° (Epoch: 01 August)

Event Time Altitude Azimuth Distance (km) Brightness Sun altitude
Exits shadow 00:34:27 54° 85° (E) 560 3.4 -22.1°
Drops below altitude 10° 00:37:30 10° 42° (NE) 1,648 6.8 -21.8°
Sets 00:39:44 0° 38° (NE) 2,610 8.1 -21.7°
